This is the latest recevied weather packets stored in our database for station/object WX7FGZ-5. If no packets are shown the sender has not sent any weather packets the latest 10 day(s).
| Time | Temp. | Humidity | Pressure | Rain* | Wind** | Luminosity | Snow |
|---|---|---|---|---|---|---|---|
| 1777510028 | 15.56° C | 16% | 1020.6 hPa | 0 mm | - | 130 W/m² | - |
| 1777509708 | 15.56° C | 16% | 1020.3 hPa | 0 mm | - | 153 W/m² | - |
| 1777509408 | 15.56° C | 15% | 1020.2 hPa | 0 mm | - | 156 W/m² | - |
| 1777508965 | 16.11° C | 15% | 1020.1 hPa | 0 mm | - | 178 W/m² | - |
| 1777508064 | 16.67° C | 15% | 1020.7 hPa | 0 mm | - | 192 W/m² | - |
| 1777507769 | 16.67° C | 15% | 1020.7 hPa | 0 mm | - | 225 W/m² | - |
| 1777507464 | 16.67° C | 15% | 1020.8 hPa | 0 mm | - | 223 W/m² | - |
| 1777506679 | 16.67° C | 15% | 1020.6 hPa | 0 mm | - | 287 W/m² | - |
| 1777506413 | 16.67° C | 15% | 1020.6 hPa | 0 mm | - | 287 W/m² | - |
| 1777506113 | 16.67° C | 16% | 1020.8 hPa | 0 mm | - | 243 W/m² | - |
| 1777505826 | 17.22° C | 16% | 1020.7 hPa | 0 mm | - | 323 W/m² | - |
| 1777502837 | 17.78° C | 17% | 1021.3 hPa | 0 mm | - | 712 W/m² | - |
| 1777502823 | 17.22° C | 17% | 1021.5 hPa | 0 mm | - | 696 W/m² | - |
| 1777502524 | 17.78° C | 17% | 1021.3 hPa | 0 mm | - | 712 W/m² | - |
| 1777501026 | 17.22° C | 16% | 1021.8 hPa | 0 mm | - | 780 W/m² | - |
| 1777500764 | 17.22° C | 16% | 1021.8 hPa | 0 mm | - | 810 W/m² | - |
| 1777500720 | 17.78° C | 16% | 1021.7 hPa | 0 mm | - | 793 W/m² | - |
| 1777500413 | 17.22° C | 16% | 1021.8 hPa | 0 mm | - | 810 W/m² | - |
| 1777499514 | 17.78° C | 16% | 1021.6 hPa | 0 mm | - | 847 W/m² | - |
| 1777499221 | 17.78° C | 16% | 1021.8 hPa | 0 mm | - | 858 W/m² | - |
| 1777498915 | 17.78° C | 16% | 1021.8 hPa | 0 mm | - | 872 W/m² | - |
| 1777498335 | 17.22° C | 16% | 1021.9 hPa | 0 mm | - | 893 W/m² | - |
| 1777498013 | 17.78° C | 16% | 1022 hPa | 0 mm | - | 904 W/m² | - |
| 1777495922 | 17.78° C | 17% | 1022.3 hPa | 0 mm | - | 997 W/m² | - |
| 1777495616 | 17.22° C | 17% | 1022.3 hPa | 0 mm | - | 979 W/m² | - |
* Rain latest hour (hover to see other rain measurements)
** Current wind speed in m/s (hover to see current wind gust speed)